User: anonymous
Location: Unspecified
(0.0000°N, 0.0000°E)
Time: 05:55:15
(UTC+02:00)
Language:

Ariane H10 - Orbit

View from above orbital plane
View from above orbital plane
View from above satellite
View from above satellite

Ground track
Ground track

The orbit data is extracted from the following two-line orbital elements,

1 21727U 91067B   14260.64660763  .00000026  00000-0  10237-3 0  2899
2 21727 004.5744 021.3345 7183653 057.1647 007.9237 02.31401161154676
Epoch (UTC): 17 September 2014 15:31:06
Eccentricity: 0.7183653
inclination: 4.5744°
perigee height: 422 km
apogee height: 35111 km
right ascension of ascending node: 21.3345°
argument of perigee: 57.1647°
revolutions per day: 2.31401161
mean anomaly at epoch: 7.9237°
orbit number at epoch: 15467

The dashed part of the orbit path shows where the satellite is in the earth's shadow,  

DLR